Location: Aufkirchen
(47.9603°N, 11.3653°E)
Time: 10:18:12
(UTC+02:00)

Altair - Pass Details

Date: 04 August 2021
Orbit: 1501 x 1682 km, 47.2° (Epoch: 18 September)

Event Time Altitude Azimuth Distance (km) Brightness Sun altitude
Exits shadow 00:49:43 27° 129° (SE) 2,615 8.3 -24.4°
Drops below altitude 10° 00:56:35 10° 81° (E) 3,690 9.5 -24.6°
Sets 01:00:08 0° 70° (ENE) 4,658 10.2 -24.6°
